Location: College Park
(38.9810°N, 76.9370°W)
Time: 22:19:16

ISS - Pass Details

Date: 16 March 2018
Orbit: 403 x 406 km, 51.6° (Epoch: 18 March)

Event Time Altitude Azimuth Distance (km) Brightness Sun altitude
Exits shadow 04:50:37 12° 28° (NNE) 1,360 -0.6 -28.7°
Drops below altitude 10° 04:51:24 10° 41° (NE) 1,463 -0.2 -28.6°
Sets 04:54:30 0° 73° (ENE) 2,321 1.3 -28.0°
